User: anonymous   Login
Location: Unspecified
(0.0000°N, 0.0000°E)
Time: 17:04:44
(UTC+00:00)
Language:

AAUSAT3 - Orbit

View from above orbital plane
View from above orbital plane
View from above satellite
View from above satellite

Ground track
Ground track

The orbit data is extracted from the following two-line orbital elements,

1 39087U 13009B   17265.18399501  .00000152  00000-0  68082-4 0  9993
2 39087  98.5441 109.5601 0013059  19.2727 340.8940 14.35537641239436
Epoch (UTC): 22 September 2017 04:24:57
Eccentricity: 0.0013059
inclination: 98.5441°
perigee height: 764 km
apogee height: 782 km
right ascension of ascending node: 109.5601°
argument of perigee: 19.2727°
revolutions per day: 14.35537641
mean anomaly at epoch: 340.8940°
orbit number at epoch: 23943

The dashed part of the orbit path shows where the satellite is in the earth's shadow,  

DLR